Showing default

COSMOS 2168, 21782

Orbit data source: Space-Track

COSMOS 2168, 21782 is a payload satellite owned by UNKS RF (CIS) in LEO that was launched on Tue, 12 Nov 1991 UTC via a TSIKLON-3 launch vehicle from the Plesetsk Missile And Space Complex (PKMTR). Payload-class satellites include a variety of spacecraft equipped with specific instruments for various scientific and technological missions. These include communications satellites like Starlink; space stations such as the ISS; scientific satellites like the Hubble; Earth observation satellites from companies like Planet Labs, Umbra, and HawkEye 360; GPS; miniature CubeSats for education and research; and military/defense satellites.

Loading next visibility...
Identifier
21782, 1991-077D
Orbit
LEO
Country
Flag of CISCIS
Related business
Manufacturer
NPO PM
Mission
Defense Communications
Bus & Motor
STRELA-3, Unknown motor
Mass
225 kg wet, 225 kg dry
Launch date (UTC)
1991-11-12 (34 years ago)
Launch vehicle
TSIKLON-3
Launch site
Plesetsk Missile And Space Complex (PKMTR)
Object type
Payload
Rocket body
Debris
Shape & HBR
Cyl, 0.8 m
Radar Cross Section
1.257 m², Large (>1 m²)

Expand to show TLE details & history
Last TLE update: 5 hours ago

TLE from 5 hours ago
0 COSMOS 2168
1 21782U 91077D   26127.76081500  .00000034  00000-0  12552-3 0  9994
2 21782  82.5974 238.7565 0014716 116.1584  36.8154 12.65530704592688
Epoch: 2026-05-07T18:15Z
TLE epoch observation values (Epoch: 2026-05-07T18:15:34.415Z)
Latitude
26.71658°
Longitude
-84.46998°
Altitude
1,394.158 km
Speed
7.169 km/s
True Right ascension
03h 40m 06s
True Declination
26° 35' 24"
Sunlit
Object was in daylight at epoch
Visualization orbit readout
Latitude
Unknown
Longitude
Unknown
Altitude
Unknown
Speed
Unknown
Apparent Right ascension
Unknown
Apparent Declination
Unknown
Sunlit
N/A
Visualization observer readout
Local Sidereal Time
07:13:35
Azimuth
Unknown
Elevation
Unknown
Doppler factor
Unknown
Orbital elements
Apogee altitude
1,408.957 km
Perigee altitude
1,386.072 km
Semi-major axis
7,775.652 km
Eccentricity
0.00147
Inclination
82.5974°
RAAN
238.7565°
Arg. of periapsis
116.1584°
True anomaly
36.9166°
Mean anomaly
36.8154°
Eccentric anomaly
36.86599°
Mean motion
3.16547 °/min
Orbital period
113.73 mins
BSTAR
0.00012552
Loading maneuver chart data...
Computing Atmospheric mass density...
Loading historical data...
Loading historical data...
Loading historical data...
Loading historical data...
Loading historical data...
Loading historical data...
Loading historical data...

Documentation

Showing up to 5 results
|